This is the latest recevied weather packets stored in our database for station/object DO7ZT-10. If no packets are shown the sender has not sent any weather packets the latest 10 day(s).
| Time | Temp. | Humidity | Pressure | Rain* | Wind** | Luminosity | Snow |
|---|---|---|---|---|---|---|---|
| 1787688989 | 15° C | 67% | 1019 hPa | - | - | - | - |
| 1787688088 | 15° C | 66% | 1019 hPa | - | - | - | - |
| 1787687188 | 15° C | 65% | 1018.9 hPa | - | - | - | - |
| 1787686288 | 15.56° C | 64% | 1018.9 hPa | - | - | - | - |
| 1787685388 | 15.56° C | 63% | 1018.9 hPa | - | - | - | - |
| 1787684488 | 15.56° C | 63% | 1018.9 hPa | - | - | - | - |
| 1787683588 | 16.11° C | 62% | 1018.8 hPa | - | - | - | - |
| 1787682688 | 16.11° C | 61% | 1018.7 hPa | - | - | - | - |
| 1787681788 | 16.67° C | 60% | 1018.7 hPa | - | - | - | - |
| 1787680888 | 16.67° C | 60% | 1018.6 hPa | - | - | - | - |
| 1787679988 | 17.22° C | 58% | 1018.4 hPa | - | - | - | - |
| 1787679087 | 17.78° C | 56% | 1018.3 hPa | - | - | - | - |
| 1787678187 | 18.33° C | 55% | 1018.4 hPa | - | - | - | - |
| 1787677287 | 18.33° C | 54% | 1018.5 hPa | - | - | - | - |
| 1787676387 | 18.89° C | 52% | 1018.5 hPa | - | - | - | - |
| 1787675487 | 19.44° C | 51% | 1018.4 hPa | - | - | - | - |
| 1787674586 | 19.44° C | 51% | 1018.4 hPa | - | - | - | - |
| 1787673686 | 20° C | 50% | 1018.4 hPa | - | - | - | - |
| 1787672786 | 20° C | 49% | 1018.4 hPa | - | - | - | - |
| 1787671886 | 20.56° C | 47% | 1018.4 hPa | - | - | - | - |
| 1787670986 | 20.56° C | 47% | 1018.3 hPa | - | - | - | - |
| 1787670086 | 20° C | 48% | 1018.4 hPa | - | - | - | - |
| 1787669186 | 20° C | 47% | 1018.2 hPa | - | - | - | - |
| 1787668286 | 20° C | 46% | 1018.1 hPa | - | - | - | - |
| 1787667386 | 20.56° C | 45% | 1018.1 hPa | - | - | - | - |
* Rain since midnight (hover to see other rain measurements)
** Current wind speed in m/s (hover to see current wind gust speed)